Theta_e
355 356 355 355 354 354 353 354 354 354 354 354 352 350 348 347 344 341 338 347 346 345 345 348 351 354 355 354 355 356 355 354 353 352 351 351 351 351 351 351 350 349 349
357 356 356 355 355 354 354 353 353 354 353 353 353 354 353 353 351 350 346 344 345 344 345 345 348 353 357 356 356 355 354 352 353 352 351 350 351 351 351 352 351 350 349
361 361 356 355 354 356 357 357 356 356 354 353 353 353 353 353 351 351 350 348 347 344 344 345 347 349 354 358 358 357 354 351 351 350 350 350 350 350 350 351 352 351 350
362 360 355 355 357 358 357 357 356 354 353 353 353 354 354 354 353 352 351 349 346 346 347 346 347 350 352 357 360 359 356 352 350 349 349 349 350 349 349 350 351 351 350
359 358 356 358 362 359 358 357 356 355 353 352 351 351 353 353 354 352 353 352 352 349 346 348 348 349 351 354 358 360 359 355 351 350 349 349 349 350 349 349 350 350 350
359 359 359 360 360 358 353 352 353 352 349 349 347 345 348 349 350 350 351 351 352 352 352 350 349 347 346 350 354 358 360 359 354 352 350 348 348 349 349 349 349 349 349
361 360 359 359 359 350 349 350 348 345 342 343 341 341 340 347 349 348 350 349 349 349 351 351 350 348 346 347 349 353 358 359 358 355 350 347 348 348 349 349 349 349 348
359 360 358 348 347 340 347 345 344 336 333 336 334 333 327 330 335 342 345 347 348 347 347 349 351 352 352 349 351 349 353 356 358 357 352 348 347 348 349 348 349 348 348
357 350 346 342 342 341 331 340 338 336 327 329 336 330 322 320 325 331 341 342 347 346 347 348 349 350 354 352 350 351 349 350 355 357 355 350 349 349 349 348 348 348 348
341 341 341 339 342 334 339 334 333 333 332 326 327 330 334 332 324 322 329 334 342 345 349 346 346 348 351 351 352 349 344 345 350 352 353 354 352 351 350 348 347 347 348
338 334 337 337 338 335 338 337 335 335 330 326 324 324 331 329 332 328 324 327 331 333 335 341 343 346 353 351 350 347 340 338 341 344 347 350 353 352 350 349 348 348 349
331 336 334 338 339 339 336 335 337 336 334 331 327 328 325 323 323 323 323 327 328 331 333 335 339 341 344 346 346 340 336 335 333 334 338 342 347 350 350 350 350 350 349
327 339 338 340 336 339 338 339 339 336 334 331 334 327 325 324 325 325 324 322 322 326 327 331 333 336 339 343 344 340 340 332 330 329 329 333 338 343 346 347 348 348 347
329 336 335 338 339 338 336 340 335 332 337 331 333 333 325 324 324 323 321 321 319 320 323 333 331 333 335 337 340 338 342 331 329 326 326 327 330 334 339 340 341 340 341
329 332 333 333 335 336 338 342 333 336 335 335 335 335 329 325 324 323 323 322 320 316 316 323 323 335 335 335 337 342 343 335 330 327 325 324 326 328 331 332 332 332 334
324 325 327 331 333 334 336 340 336 337 336 331 328 333 334 326 327 324 324 323 322 319 316 321 322 329 336 336 336 341 340 331 329 326 324 323 323 323 324 326 326 328 330
321 320 321 321 322 326 332 336 335 333 331 332 333 330 330 334 325 323 323 322 321 320 318 320 321 328 336 340 339 342 339 339 337 325 325 323 320 320 321 322 324 324 327
318 318 317 318 318 318 321 323 327 330 330 330 330 328 326 325 332 331 325 329 323 325 321 323 323 323 332 336 339 341 336 336 336 329 324 322 319 318 318 319 320 321 320
315 316 315 315 315 316 316 318 318 319 324 328 330 329 328 328 328 325 328 325 323 324 323 322 320 322 326 329 330 336 337 338 337 332 322 322 320 318 318 317 317 316 315
313 313 313 313 313 314 315 315 315 316 319 319 324 327 327 327 327 327 327 327 327 324 323 321 320 320 323 328 327 326 326 331 333 333 330 326 326 321 317 316 315 316 313
311 311 311 311 311 311 310 312 313 313 314 314 318 319 323 323 320 322 325 325 326 322 320 318 318 318 318 318 322 325 325 328 332 333 334 338 339 336 328 316 322 319 315
307 306 306 306 306 307 303 302 305 307 308 308 309 311 314 317 318 313 314 314 320 324 322 317 317 317 322 323 321 324 325 323 323 333 333 333 339 339 340 336 322 318 311
303 302 302 303 303 304 300 299 301 306 307 307 308 309 311 313 315 319 315 311 312 310 311 322 321 322 322 325 327 328 328 325 325 334 335 332 339 337 341 338 315 311 308
300 299 299 300 300 301 298 297 298 304 306 306 309 310 312 314 317 318 319 319 322 325 324 321 320 317 317 325 330 330 328 332 331 333 337 327 338 337 343 331 312 308 306
298 299 299 299 299 300 297 296 299 303 304 304 308 309 310 315 309 301 314 320 321 322 317 307 308 309 305 306 316 323 320 320 321 325 329 324 325 332 335 332 325 307 305
299 299 298 300 300 300 298 296 298 302 305 305 309 311 307 310 299 298 305 314 311 311 310 310 310 306 308 312 308 323 320 318 315 316 324 320 322 326 321 330 329 325 316
Wind_Speed
8 8 7 7 6 6 6 7 7 7 8 9 10 11 11 11 11 8 8 7 11 13 17 18 17 16 18 18 17 19 19 18 17 17 16 15 15 15 15 16 16 16 16
8 8 8 8 8 7 7 7 8 8 8 9 11 12 12 12 12 12 10 11 13 16 18 18 17 17 17 17 19 21 18 19 18 17 17 16 14 16 17 18 18 17 16
10 9 8 8 8 7 8 8 9 9 10 10 12 11 11 13 13 14 13 12 12 17 18 18 20 18 19 18 20 19 19 19 19 18 18 17 18 18 20 20 19 19 19
11 9 8 7 7 6 7 8 8 8 9 9 9 9 10 11 13 14 13 13 12 12 13 20 19 19 19 20 20 20 20 19 18 17 18 18 20 19 21 20 19 20 19
10 9 8 7 5 8 7 7 7 8 9 10 11 10 11 11 12 12 15 15 15 14 12 11 18 18 19 19 20 21 20 20 20 20 20 21 20 21 21 19 20 21 20
13 9 8 7 6 7 7 7 8 8 7 10 11 12 12 12 12 13 14 15 16 17 15 16 13 13 21 20 20 21 21 21 21 21 20 21 20 22 21 21 21 21 21
11 10 9 8 8 7 6 6 7 9 8 9 9 12 13 14 15 14 13 14 16 16 16 14 11 11 10 19 20 21 21 22 22 22 21 20 21 22 21 21 20 20 20
10 10 8 6 7 6 6 7 7 8 9 8 9 11 13 12 12 13 13 11 15 13 14 14 14 14 12 9 11 20 19 20 21 20 20 20 22 21 21 21 20 20 19
8 9 9 8 6 7 7 7 8 8 9 8 10 11 11 13 13 12 11 10 11 10 12 12 14 14 12 12 11 11 18 19 20 19 17 20 21 21 22 20 20 18 18
9 10 9 9 8 7 5 6 6 8 7 9 9 10 12 14 14 15 13 13 11 10 13 11 13 13 12 11 13 14 14 22 23 22 21 22 22 22 22 21 20 18 17
9 9 10 10 9 8 7 9 7 8 8 9 9 10 11 10 13 13 15 13 14 14 13 11 10 12 12 11 12 13 15 14 14 18 21 22 23 23 22 21 21 19 18
8 11 12 11 10 9 9 9 10 11 10 9 10 9 10 11 11 13 14 13 14 13 13 13 12 10 11 13 14 15 11 16 15 13 16 17 20 21 22 22 20 20 18
7 8 10 11 10 12 12 11 10 11 11 11 10 10 10 11 11 11 13 13 14 14 14 13 13 12 11 13 15 13 13 13 12 15 13 15 16 18 20 21 20 20 18
9 9 10 11 13 14 14 12 11 12 11 11 14 12 11 11 11 11 12 13 14 13 14 16 12 13 12 13 12 9 16 10 14 14 15 16 19 18 20 17 17 15 14
9 12 13 14 15 16 16 14 13 13 12 12 13 12 12 11 11 12 11 11 13 14 14 13 14 14 11 12 12 12 13 12 11 12 13 16 20 16 15 16 14 14 15
11 12 13 14 15 16 16 15 15 15 14 13 12 14 13 13 13 12 12 13 13 14 16 13 12 15 13 12 14 11 12 8 12 13 14 17 14 10 11 14 14 14 16
13 14 15 15 16 16 17 16 18 19 19 16 16 17 17 15 14 14 13 13 13 14 16 14 14 15 16 14 14 14 13 14 11 15 15 15 14 12 14 14 15 16 15
15 16 17 17 18 18 18 19 20 20 21 21 20 20 21 15 17 16 14 15 15 14 15 18 15 15 17 15 14 15 14 12 12 9 15 14 15 15 17 16 14 13 13
16 17 17 18 19 19 20 20 21 22 21 21 22 21 21 20 19 16 16 15 15 13 14 15 14 14 14 13 14 14 12 14 12 13 11 13 15 17 17 14 14 14 13
15 15 16 17 18 18 19 20 21 22 21 21 20 21 22 22 22 19 17 17 15 15 15 15 15 15 15 14 13 13 13 10 13 13 12 2 12 13 14 15 16 16 14
14 15 16 17 17 16 14 17 16 17 19 21 21 22 21 23 27 23 16 18 18 16 15 16 16 15 15 14 14 13 14 13 14 13 10 8 8 8 9 10 12 15 15
15 15 16 17 18 13 16 12 12 15 16 17 18 20 21 26 23 23 24 23 21 18 18 17 17 17 18 16 15 14 14 10 14 12 12 12 11 11 9 9 12 16 13
15 15 17 17 17 16 15 12 14 17 17 16 19 18 19 16 22 23 22 24 28 26 27 21 21 20 21 18 16 16 16 13 13 10 10 10 9 10 9 5 15 14 13
13 14 14 15 16 14 18 16 20 20 19 17 18 19 20 20 21 22 23 22 22 21 20 18 20 21 21 18 18 15 14 13 10 8 7 7 9 7 7 8 7 7 9
14 14 16 16 18 18 19 17 16 16 16 15 18 15 19 20 16 11 17 23 23 20 13 13 23 20 19 16 12 5 9 6 5 5 4 1 4 7 7 9 8 5 7
14 12 14 16 19 18 19 16 17 12 16 13 16 17 17 10 11 14 16 21 19 12 7 4 4 5 9 8 13 11 7 6 2 2 3 3 4 5 5 7 5 4 5
Wind_Direction
211 215 226 236 237 228 227 240 244 250 256 250 253 253 255 259 262 267 272 237 224 238 248 250 239 229 235 233 229 227 218 227 226 229 228 233 232 231 227 230 231 228 232
211 225 223 229 235 238 245 250 250 261 260 266 263 258 261 265 262 263 260 262 214 219 235 244 251 254 240 234 226 229 222 218 223 223 227 228 227 229 232 229 229 233 233
218 235 232 234 231 233 246 250 252 247 254 255 258 260 262 262 260 259 259 258 260 217 222 224 235 235 242 234 232 230 223 224 219 219 225 222 222 225 230 228 228 229 231
221 212 235 231 236 237 241 248 250 254 258 263 265 267 267 263 258 258 259 261 259 261 220 214 220 226 232 234 227 224 224 222 224 218 223 222 225 220 227 229 227 232 230
213 224 225 224 212 237 237 261 261 269 284 275 274 264 260 261 266 264 263 261 257 257 260 247 208 217 222 228 227 221 217 217 218 216 219 223 225 222 226 225 226 228 234
210 209 234 235 220 243 243 215 248 289 275 276 288 283 286 278 269 265 261 257 254 254 251 252 252 227 216 222 222 222 218 218 215 220 219 223 223 225 223 218 227 227 231
206 204 228 207 227 247 259 277 263 251 272 281 298 277 266 254 250 253 257 263 260 254 252 249 245 251 243 210 208 218 218 221 220 218 216 218 220 226 222 220 222 226 227
216 217 232 212 224 249 227 247 250 274 273 277 271 284 284 272 265 257 248 253 267 271 263 249 251 253 255 253 215 213 215 224 229 223 217 218 218 220 223 219 220 221 226
199 212 209 238 214 241 238 216 239 266 283 286 278 285 285 281 299 298 278 262 253 267 275 265 261 259 248 251 250 222 207 211 226 230 223 224 221 222 220 218 216 216 218
199 205 215 219 223 247 249 232 241 266 273 281 279 265 273 286 287 289 281 277 264 251 255 265 274 261 255 250 239 247 217 211 212 213 216 223 225 224 221 215 210 209 213
217 222 223 227 226 230 224 250 253 248 274 271 280 285 282 269 266 267 280 282 276 277 264 252 260 282 270 252 250 243 233 235 223 225 214 208 218 221 220 217 209 203 208
212 229 233 231 232 237 239 237 241 247 255 273 277 281 278 280 284 282 283 279 276 278 279 278 279 262 265 267 249 255 246 226 232 234 229 221 218 218 219 216 212 203 205
247 242 239 254 244 234 244 236 234 248 243 247 248 262 272 277 281 278 279 285 284 280 281 282 278 276 268 264 271 255 238 217 217 230 243 243 239 220 220 216 205 203 202
281 292 285 273 259 257 249 247 241 237 243 237 243 248 263 269 275 276 280 283 283 283 277 278 271 271 275 283 277 291 280 220 221 219 228 230 236 230 210 208 200 201 206
279 267 269 265 266 262 254 249 243 247 240 238 242 241 247 261 265 270 272 275 280 284 283 286 288 292 284 268 273 293 297 295 227 223 236 233 234 224 216 206 191 200 211
282 283 282 276 270 263 259 252 249 245 242 245 247 246 241 250 254 255 260 268 275 280 283 285 283 287 291 288 288 275 272 272 247 216 224 235 235 220 212 215 206 198 215
282 278 276 273 270 268 262 255 253 258 258 247 242 250 251 247 252 255 256 258 262 269 276 277 287 289 287 283 284 284 284 280 272 209 213 224 224 214 222 230 230 201 207
284 281 279 275 272 268 266 263 260 255 252 246 245 248 251 249 242 244 255 261 265 271 281 286 290 287 278 280 282 277 274 270 276 238 206 215 219 219 217 225 224 218 184
282 277 277 277 276 275 271 266 262 261 261 258 257 255 252 248 249 251 252 256 256 251 255 265 282 282 280 285 282 281 264 262 262 263 218 219 227 215 216 213 210 200 192
286 288 286 284 282 278 274 271 270 268 267 265 265 261 258 256 253 249 248 248 254 261 263 267 269 269 266 270 274 278 273 256 258 254 249 264 212 208 209 195 193 193 194
287 290 289 286 283 279 273 273 277 279 277 275 272 271 266 258 257 258 256 248 250 253 254 261 266 269 271 275 269 265 262 263 259 245 259 247 221 205 193 193 197 195 200
299 298 295 292 293 285 295 305 290 283 282 283 280 277 280 278 258 247 245 245 254 259 258 268 271 271 276 276 267 261 251 245 257 259 233 237 220 216 198 193 194 191 178
296 294 291 289 285 285 279 272 274 277 273 272 273 268 270 262 265 259 244 237 240 239 237 250 260 262 267 263 261 244 243 245 250 260 226 240 220 222 219 151 159 163 163
293 286 283 280 282 282 285 276 269 271 270 266 267 269 269 270 261 257 260 257 249 247 240 236 244 255 258 251 252 238 242 249 257 246 221 235 194 198 169 115 126 142 158
286 283 283 281 275 279 273 268 267 274 266 266 267 268 266 268 263 281 281 264 258 257 267 256 247 237 236 232 240 225 235 214 199 205 181 233 205 151 168 147 114 124 140
278 273 273 274 273 275 272 265 264 270 266 266 267 259 261 272 305 279 265 249 246 260 216 199 114 99 181 203 185 194 170 178 136 157 200 222 174 172 161 98 99 122 109